Regional Weather Roundup
Issued by NWS

Home | Current Version | Previous Version | Graphics & Text | Print | Product List | Glossary On
Versions: 1 2 3 4 5 6 7 8 9 10 11 12 13 14 15 16 17 18 19 20 21 22 23 24 25 26 27 28 29 30 31 32 33 34 35 36 37 38 39 40 41 42 43 44 45 46 47 48 49 50
000
ASUS43 KIND 171109
RWRIN

WEATHER ROUNDUP FOR INDIANA
NATIONAL WEATHER SERVICE INDIANAPOLIS IN
700 AM EDT WED SEP 17 2014

NOTE: "FAIR" INDICATES FEW OR NO CLOUDS BELOW 12,000 FEET WITH NO
SIGNIFICANT WEATHER AND/OR OBSTRUCTIONS TO VISIBILITY.

* - STATION DOES NOT REPORT WEATHER SUCH AS PRECIPITATION OR FOG.

+ - STATION NOT QUALITY CONTROLLED BY THE NATIONAL WEATHER SERVICE.
    USE DATA WITH CAUTION...ESPECIALLY DEWPOINT AND RELATIVE
    HUMIDITY OBSERVATIONS.

INZ001>003-010>013-019-020-171200-
NORTHWEST INDIANA

CITY           SKY/WX    TMP DP  RH WIND       PRES   REMARKS
GARY /AIRPORT/ PTCLDY    45  43  93 VRB3      30.06S
KNOX *+          N/A     41  40  95 CALM      30.06R
LA PORTE +     PTCLDY    40  40 100 CALM      30.07S FOG
MICHIGAN CITY+ CLEAR     41  41 100 CALM      30.07S FOG
MONTICELLO +     N/A     41  41 100 CALM      30.06S FOG
RENSSELAER +   FOG       43  43 100 CALM      30.07R VSB 1
VALPARAISO     FOG       41  40  96 CALM      30.07S VSB 1/4

$$

LMZ046-743>745-171200-
SOUTHERN LAKE MICHIGAN

STATION/POSITION TIME  TEMP WIND        PRES
                       AIR  DIR/SP/G
                 (UTC) (F)  (DEG/KT/KT) (MB)
MICHIGAN CITY    1100   50  130/ 10/ 12   N/A

$$

INZ004-005-014>016-021>024-171200-
NORTH CENTRAL INDIANA

CITY           SKY/WX    TMP DP  RH WIND       PRES   REMARKS
ELKHART        PTCLDY    41  41 100 CALM      30.07
GOSHEN         CLEAR     42  39  89 CALM      30.07S FOG
LOGANSPORT +   FOG       41  39  93 SE3       30.08S VSB 1/4
PERU/GRISSOM   FOG       46  46 100 S3        30.07R VSB 1/4
ROCHESTER +    CLEAR     45  45 100 CALM      30.07S FOG
SOUTH BEND     CLEAR     44  41  89 CALM      30.07S
WARSAW +       PTCLDY    41  41 100 CALM      30.07S FOG

$$

INZ006>009-017-018-025>027-171200-
NORTHEAST INDIANA

CITY           SKY/WX    TMP DP  RH WIND       PRES   REMARKS
ANGOLA *+      CLOUDY    41  39  93 CALM      30.07S VSB 1/4
AUBURN +       CLEAR     41  39  93 CALM      30.08S FOG
FORT WAYNE     MOCLDY    43  41  93 CALM      30.08S
HUNTINGTON +   FOG       43  43 100 CALM      30.07S VSB 1/4

$$

INZ028-029-035-036-043>045-051>053-171200-
WEST CENTRAL INDIANA

CITY           SKY/WX    TMP DP  RH WIND       PRES   REMARKS
GREENCASTLE +  CLEAR     45  45 100 CALM      30.08S FOG
LAFAYETTE      FOG       42  42 100 CALM      30.07S VSB 1/4
TERRE HAUTE    FOG       43  42  97 CALM      30.08S VSB 1/4

$$

INZ030>032-037>040-046>048-054>057-064-065-171200-
CENTRAL INDIANA

CITY           SKY/WX    TMP DP  RH WIND       PRES   REMARKS
CP ATTERBURY +   N/A     41  39  93 CALM      30.09S FOG
COLUMBUS       FOG       41  41 100 CALM      30.09  VSB 1
FRANKFORT +      N/A    N/A N/A N/A CALM      30.08S FOG
INDIANAPOLIS   PTCLDY    47  45  93 CALM      30.07S FOG
-EAGLE CREEK   CLEAR     48  45  89 CALM      30.07S
KOKOMO *+      CLEAR     43  41  93 CALM      30.08S
MARION +       FOG       41  41  99 CALM      30.08F VSB 1/4
MT COMFORT *+  CLOUDY    41 N/A N/A CALM      30.08F VSB 1/4
SHELBYVILLE    FOG       44  42  93 CALM      30.08S VSB 1/4
ZIONSVILLE +   CLEAR     42  40  91 CALM      30.08S FOG

$$

INZ033-034-041-042-049-050-058-059-171200-
EAST CENTRAL INDIANA

CITY           SKY/WX    TMP DP  RH WIND       PRES   REMARKS
MUNCIE         FOG       42  41  96 CALM      30.08S VSB 3/4

$$

INZ060-061-067>069-081>083-085>088-171200-
SOUTHWEST INDIANA

CITY           SKY/WX    TMP DP  RH WIND       PRES   REMARKS
EVANSVILLE     CLEAR     47  45  93 CALM      30.07F FOG
WASHINGTON +   FOG       43  43 100 CALM      30.07F VSB 1/4

$$

INZ062-063-066-070>080-084-089>092-171200-
SOUTH CENTRAL AND SOUTHEAST INDIANA

CITY           SKY/WX    TMP DP  RH WIND       PRES   REMARKS
BEDFORD +        N/A     43  41  93 CALM      30.07
BLOOMINGTON    FOG       43  41  93 CALM      30.07F VSB 1/2

$$




USA.gov is the U.S. government's official web portal to all federal, state and local government web resources and services.